Regional Weather Roundup
Issued by NWS

Home | Current Version | Previous Version | Graphics & Text | Print | Product List | Glossary On
Versions: 1 2 3 4 5 6 7 8 9 10 11 12 13 14 15 16 17 18 19 20 21 22 23 24 25 26 27 28 29 30 31 32 33 34 35 36 37 38 39 40 41 42 43 44 45 46 47 48 49 50
000
ASUS43 KFSD 290702
RWRSD

WEATHER ROUNDUP FOR SOUTH DAKOTA
NATIONAL WEATHER SERVICE SIOUX FALLS SD
200 AM CDT MON MAY 29 2017

NOTE: "FAIR" INDICATES FEW OR NO CLOUDS BELOW 12,000 FEET WITH NO
SIGNIFICANT WEATHER AND/OR OBSTRUCTIONS TO VISIBILITY.


SDZ001>005-009-010-012>017-290800-
NORTHWEST AND NORTH CENTRAL SOUTH DAKOTA

CITY           SKY/WX    TMP DP  RH WIND       PRES   REMARKS
BUFFALO          N/A     46  34  62 W5        30.05R
FAITH            N/A     46  36  68 W6        30.07R
MOBRIDGE       CLEAR     52  40  63 NW9       29.96R
$$

SDZ012>016-024>037-041>051-057-063-072>074-290800-
SOUTHWEST AND SOUTH CENTRAL SOUTH DAKOTA

CITY           SKY/WX    TMP DP  RH WIND       PRES   REMARKS
RAPID CTY ARPT PTCLDY    50  40  68 NW10      30.10R
PIERRE         CLEAR     48  38  68 NW3       29.99R
CUSTER         CLEAR     46  37  71 NW6       30.18S
ELLSWORTH AFB  PTCLDY    54  40  59 NW10      30.09S
PHILIP         CLEAR     49  38  65 NW12      30.05R
PINE RIDGE     CLEAR     49  45  86 W7        30.11R
SPEARFISH      FAIR      52  36  54 NW8       30.15R
WINNER         FAIR      51  48  89 SW5       29.99S
$$

SDZ004>011-016>023-039-040-290800-
NORTHEAST SOUTH DAKOTA

CITY           SKY/WX    TMP DP  RH WIND       PRES   REMARKS
ABERDEEN       CLEAR     50  40  68 W10       29.90S
WATERTOWN      CLEAR     47  44  90 W6        29.86S
BROOKINGS      PTCLDY    50  45  83 W6        29.87F
SISSETON         N/A     55  46  71 NW15      29.83R
$$

SDZ017-020-022-023-036>040-048>070-290800-
SOUTHEAST SOUTH DAKOTA

CITY           SKY/WX    TMP DP  RH WIND       PRES   REMARKS
SIOUX FALLS    MOCLDY    54  48  80 NW7       29.90R
HURON          LGT RAIN  51  46  83 W9        29.92S
MITCHELL       PTCLDY    51  47  86 W7        29.93R
YANKTON        PTCLDY    55  47  74 NW5       29.92S
$$

ABBREVIATIONS USED IN REMARKS
   TC - TEMPERATURE IN CELSIUS
  WCI - WIND CHILL INDEX
   HX - HEAT INDEX
  VSB - VISIBILITY





USA.gov is the U.S. government's official web portal to all federal, state and local government web resources and services.